Location: Ab? ar R?sh Ba?r?
(24.1861°N, 32.8847°E)
Time: 21:01:30
(UTC+00:00)

Milstar 3 Cent rocket - Pass Details

Date: 01 June 2022
Orbit: 706 x 5146 km, 28.3° (Epoch: 02 July)

Event Time Altitude Azimuth Distance (km) Brightness Sun altitude
Rises 19:59:01 0° 280° (W) 7,146 7.4 -36.8°
Reaches altitude 10° 20:07:01 10° 263° (W) 5,083 6.4 -37.8°
Enters shadow 20:13:52 16° 232° (SW) 3,632 5.3 -38.5°
